Orbital Elements at Epoch 2459200.5 (2020-Dec-17.0) TDB
Reference: JPL 26 (heliocentric ecliptic J2000)
Element | Value | Uncertainty (1-sigma) | Units |
e | .1033433376688661 | 3.0238e-08 | |
a | 2.219705208499496 | 7.56e-09 | au |
q | 1.990313463612191 | 6.5586e-08 | au |
i | 5.687183556223395 | 3.3383e-06 | deg |
node | 88.89242260018632 | 3.6884e-05 | deg |
peri | 182.6868254667763 | 4.159e-05 | deg |
M | 69.07047862327188 | 1.8582e-05 | deg |
tp | 2458968.743809662841 (2020-Apr-29.24380966) | 6.2537e-05 | TDB |
period | 1207.928918177012 3.31 | 6.171e-06 1.69e-08 | d yr |
n | .2980307819298726 | 1.5226e-09 | deg/d |
Q | 2.4490969533868 | 8.3412e-09 | au |
|
| | Orbit Determination Parameters
Additional Information
|